Back to catalog

STARLINK-30067

AliveCommunicationsVLEO
NORAD 56693·PAYLOAD·🇺🇸 United States

Launched May 19, 2023 from Cape Canaveral Space Force Station

Loading…

Next Passes (next 24 hours)

TLE

FreshSource: CelesTrak SupGP

Epoch: Sep 14, 2026, 13:37 UTC

1 56693C 23067F   26257.56784722  .00063769  00000+0  23100-2 0  2575
2 56693  43.0021 294.6311 0001561 271.3843 178.6333 15.27542433    16

Track STARLINK-30067 in real time with AllMySat

Download on the App Store